Content
SEND FEEDBACK

Daily
Averages
Monthly
Summary
United States of America

HASTINGS, FLORIDA


Home > North America > United States > Florida
Elevation: 0 feet     Latitude: 29 45N     Longitude: 081 31W

WEATHER
 
SELECT A DAY
Number of Records: 339,196;   Date Range: 7/1/96 - 9/18/14
 
SHARE

PRINT THIS DATA

[ ← Previous Day ]
WEATHER ALMANAC - JANUARY 31, 2013
[ Next Day → ]
[ °C ]   °F
Weather ElementAverageHighLow
Temperature54.7 °F62.6 °F (12:41 am)44.1 °F (11:58 pm)
Dewpoint40.2 °F55.4 °F (12:41 am)21.9 °F (1:58 pm)
Humidity62.6 %94 % (1:48 am)25 % (1:58 pm)
Barometer30.08 in30.27 in (11:58 pm)29.91 in (12:41 am)
Wind Speed9.4 mph18.4 mph (10:58 am)
Wind Gust32.2 mph (12:41 am)
Weather ElementAverage
Visibility9.3 mi
Wind DirectionWNW (283.9 °)

Weather ElementTotal
Precipitation0.09 in
Heating Degree Days11.7 (Base 65)
Growing Degree Days3.4 (Base 50)
Averaged from 31 records on January 31, 2013
WEATHER CONDITIONS BREAKOUT
WIND DIRECTION BREAKOUT
WEATHER BY HOUR - JANUARY 31, 2013
[ °C ]   °F
Local TimeTemperatureDewpointHumidityBarometerVisibilityWind DirectionWind SpeedGust SpeedPrecipitationEventsConditions
12:41 AM62.6 °F55.4 °F77 %29.91 in10.0 miWest (270°)16.1 mph32.2 mph0.00 inRainLight Rain
12:58 AM61.0 °F55.0 °F81 %29.93 in10.0 miWest (260°)16.1 mph27.6 mph0.00 inOvercast
1:13 AM59.0 °F55.4 °F88 %29.94 in7.0 miWest (260°)13.8 mph0.00 inRainLight Rain
1:19 AM59.0 °F55.4 °F88 %29.93 in5.0 miWest (260°)10.4 mph18.4 mph0.00 inRainLight Rain
1:48 AM57.2 °F55.4 °F94 %29.95 in4.0 miWest (280°)10.4 mph0.03 inRainLight Rain
1:58 AM57.0 °F53.1 °F87 %29.96 in5.0 miWest (280°)11.5 mph23.0 mph0.04 inRainLight Rain
2:04 AM55.4 °F48.2 °F77 %29.95 in8.0 miWest (260°)11.5 mph0.01 inRainLight Rain
2:58 AM55.0 °F53.1 °F93 %29.97 in10.0 miWSW (250°)3.5 mph0.01 inOvercast
3:17 AM55.4 °F53.6 °F94 %29.97 in10.0 miWest (270°)4.6 mphOvercast
3:58 AM55.9 °F53.1 °F90 %29.98 in10.0 miWest (260°)5.8 mphOvercast
4:58 AM55.0 °F50.0 °F83 %29.99 in10.0 miWNW (290°)6.9 mphPartly Cloudy
5:58 AM54.0 °F48.0 °F80 %30.02 in10.0 miWNW (300°)8.1 mph16.1 mphMostly Cloudy
6:25 AM53.6 °F46.4 °F77 %30.04 in10.0 miWNW (300°)9.2 mphScattered Clouds
6:58 AM52.0 °F45.0 °F77 %30.07 in10.0 miWNW (300°)8.1 mphMostly Cloudy
7:13 AM51.8 °F44.6 °F76 %30.08 in10.0 miWNW (300°)11.5 mphScattered Clouds
7:58 AM50.0 °F39.0 °F66 %30.11 in10.0 miNW (320°)11.5 mphPartly Cloudy
8:58 AM51.1 °F35.1 °F54 %30.14 in10.0 miWNW (300°)13.8 mph18.4 mphClear
9:58 AM52.0 °F32.0 °F47 %30.15 in10.0 miNW (320°)15.0 mphClear
10:58 AM53.1 °F33.1 °F47 %30.16 in10.0 miNW (310°)18.4 mph23.0 mphClear
11:58 AM55.9 °F30.9 °F39 %30.16 in10.0 miWest (280°)8.1 mph16.1 mphClear
12:58 PM57.9 °F27.0 °F31 %30.14 in10.0 miWNW (290°)9.2 mph17.3 mphClear
1:58 PM57.9 °F21.9 °F25 %30.13 in10.0 miWNW (300°)13.8 mphClear
2:58 PM60.1 °F24.1 °F25 %30.14 in10.0 miWNW (300°)11.5 mphClear
3:58 PM60.1 °F25.0 °F26 %30.14 in10.0 miWest (260°)8.1 mphClear
4:58 PM59.0 °F25.0 °F27 %30.15 in10.0 miWNW (290°)9.2 mphClear
5:58 PM55.0 °F26.1 °F33 %30.17 in10.0 miWNW (300°)4.6 mphClear
6:58 PM52.0 °F28.9 °F41 %30.19 in10.0 miWNW (300°)4.6 mphClear
7:58 PM50.0 °F30.0 °F46 %30.22 in10.0 miWest (270°)4.6 mphClear
9:58 PM48.0 °F30.0 °F50 %30.25 in10.0 miWNW (300°)4.6 mphClear
10:58 PM46.0 °F32.0 °F58 %30.26 in10.0 miWest (280°)3.5 mphClear
11:58 PM44.1 °F33.1 °F65 %30.27 in10.0 miWSW (240°)3.5 mphClear
Hourly data recorded from KSGJ, located miles away from Hastings, Florida







STORIES FROM OUR PARTNERS